AAL1808 KLAS-KPHX

Flight info

Callsign AAL1808
Flight time 0h 49m
Altitude 29000
Route RASLR3 ZAYNE WOTRO BRUSR1
Aircraft A321/M-SDE3FGHIRWY/LB1

Departure

Time 2026-05-06 02:19
Airport Harry Reid International Airport (KLAS)

Arrival

Time 2026-05-06 03:08
Airport Phoenix Sky Harbor International Airport (KPHX)
Time Latitude Longitude Altitude Speed Heading
2026-05-06 00:20 36.07995 -115.13574 2188 ft 0 kts 42°
2026-05-06 01:46 36.07995 -115.13575 2188 ft 0 kts 42°
2026-05-06 01:58 36.07994 -115.13575 2188 ft 0 kts 42°
2026-05-06 02:00 36.07980 -115.13591 2188 ft 4 kts 42°
2026-05-06 02:00 36.07960 -115.13613 2188 ft 4 kts 42°
2026-05-06 02:00 36.07945 -115.13630 2188 ft 4 kts 62°
2026-05-06 02:01 36.07944 -115.13652 2188 ft 4 kts 131°
2026-05-06 02:01 36.07960 -115.13673 2188 ft 2 kts 135°
2026-05-06 02:01 36.07961 -115.13674 2188 ft 1 kts 135°
2026-05-06 02:03 36.07954 -115.13666 2188 ft 2 kts 135°
2026-05-06 02:03 36.07948 -115.13659 2188 ft 1 kts 135°
2026-05-06 02:04 36.07924 -115.13628 2188 ft 11 kts 135°
2026-05-06 02:04 36.07866 -115.13556 2188 ft 11 kts 135°
2026-05-06 02:04 36.07829 -115.13489 2189 ft 11 kts 101°
2026-05-06 02:04 36.07828 -115.13377 2189 ft 13 kts 90°
2026-05-06 02:05 36.07827 -115.13238 2188 ft 20 kts 90°
2026-05-06 02:05 36.07828 -115.13056 2188 ft 20 kts 90°
2026-05-06 02:05 36.07827 -115.12890 2188 ft 19 kts 90°
2026-05-06 02:05 36.07828 -115.12777 2188 ft 12 kts 90°
2026-05-06 02:06 36.07828 -115.12678 2188 ft 11 kts 90°
2026-05-06 02:06 36.07828 -115.12588 2188 ft 10 kts 90°
2026-05-06 02:06 36.07829 -115.12509 2189 ft 9 kts 90°
2026-05-06 02:06 36.07829 -115.12438 2188 ft 8 kts 90°
2026-05-06 02:07 36.07829 -115.12377 2188 ft 7 kts 90°
2026-05-06 02:07 36.07830 -115.12326 2191 ft 5 kts 90°
2026-05-06 02:07 36.07830 -115.12287 2188 ft 3 kts 90°
2026-05-06 02:07 36.07819 -115.12255 2188 ft 6 kts 123°
2026-05-06 02:08 36.07817 -115.12252 2188 ft 0 kts 123°
2026-05-06 02:08 36.07813 -115.12247 2188 ft 5 kts 135°
2026-05-06 02:08 36.07764 -115.12256 2191 ft 8 kts 229°
2026-05-06 02:09 36.07756 -115.12323 2190 ft 9 kts 269°
2026-05-06 02:09 36.07755 -115.12396 2188 ft 8 kts 270°
2026-05-06 02:09 36.07756 -115.12487 2188 ft 15 kts 270°
2026-05-06 02:09 36.07756 -115.12630 2188 ft 16 kts 269°
2026-05-06 02:10 36.07755 -115.12759 2188 ft 15 kts 269°
2026-05-06 02:10 36.07754 -115.12887 2188 ft 14 kts 270°
2026-05-06 02:10 36.07754 -115.13012 2189 ft 17 kts 270°
2026-05-06 02:10 36.07754 -115.13177 2189 ft 19 kts 270°
2026-05-06 02:11 36.07753 -115.13337 2189 ft 18 kts 268°
2026-05-06 02:11 36.07752 -115.13503 2189 ft 23 kts 269°
2026-05-06 02:11 36.07753 -115.13665 2189 ft 21 kts 271°
2026-05-06 02:11 36.07753 -115.13869 2189 ft 21 kts 269°
2026-05-06 02:12 36.07753 -115.14055 2188 ft 23 kts 270°
2026-05-06 02:12 36.07753 -115.14254 2188 ft 24 kts 270°
2026-05-06 02:12 36.07760 -115.14430 2189 ft 20 kts 275°
2026-05-06 02:12 36.07772 -115.14612 2190 ft 22 kts 274°
2026-05-06 02:13 36.07783 -115.14806 2188 ft 23 kts 274°
2026-05-06 02:13 36.07793 -115.14968 2189 ft 18 kts 274°
2026-05-06 02:13 36.07805 -115.15131 2188 ft 20 kts 272°
2026-05-06 02:13 36.07805 -115.15307 2189 ft 21 kts 269°
2026-05-06 02:14 36.07804 -115.15496 2189 ft 23 kts 270°
2026-05-06 02:14 36.07804 -115.15700 2188 ft 24 kts 270°
2026-05-06 02:14 36.07803 -115.15901 2188 ft 24 kts 269°
2026-05-06 02:14 36.07803 -115.16082 2187 ft 20 kts 270°
2026-05-06 02:15 36.07803 -115.16236 2189 ft 16 kts 270°
2026-05-06 02:15 36.07751 -115.16341 2189 ft 15 kts 209°
2026-05-06 02:15 36.07651 -115.16399 2189 ft 17 kts 204°
2026-05-06 02:15 36.07543 -115.16460 2190 ft 17 kts 205°
2026-05-06 02:16 36.07448 -115.16514 2189 ft 12 kts 205°
2026-05-06 02:16 36.07389 -115.16579 2191 ft 12 kts 251°
2026-05-06 02:16 36.07390 -115.16613 2188 ft 0 kts 289°
2026-05-06 02:17 36.07400 -115.16645 2188 ft 9 kts 293°
2026-05-06 02:17 36.07450 -115.16715 2192 ft 12 kts 338°
2026-05-06 02:18 36.07520 -115.16697 2193 ft 0 kts 24°
2026-05-06 02:18 36.07522 -115.16696 2189 ft 2 kts 24°
2026-05-06 02:18 36.07714 -115.16587 2189 ft 67 kts 25°
2026-05-06 02:18 36.08336 -115.16229 2189 ft 128 kts 25°
2026-05-06 02:19 36.09286 -115.15678 2272 ft 166 kts 26°
2026-05-06 02:19 36.10333 -115.15074 2867 ft 166 kts 26°
2026-05-06 02:19 36.11383 -115.14467 3497 ft 167 kts 28°
2026-05-06 02:19 36.12285 -115.13580 4000 ft 169 kts 54°
2026-05-06 02:20 36.12945 -115.10558 4352 ft 207 kts 85°
2026-05-06 02:20 36.13121 -115.08714 4496 ft 225 kts 83°
2026-05-06 02:20 36.13320 -115.06704 4617 ft 246 kts 83°
2026-05-06 02:21 36.13539 -115.04504 4748 ft 271 kts 83°
2026-05-06 02:21 36.13750 -115.02418 5135 ft 283 kts 83°
2026-05-06 02:21 36.13998 -114.99976 5811 ft 288 kts 83°
2026-05-06 02:21 36.14249 -114.97503 6530 ft 291 kts 83°
2026-05-06 02:22 36.14501 -114.94998 7240 ft 295 kts 83°
2026-05-06 02:22 36.14762 -114.92472 7918 ft 298 kts 83°
2026-05-06 02:22 36.15025 -114.89909 8559 ft 302 kts 83°
2026-05-06 02:22 36.15073 -114.87299 9179 ft 306 kts 97°
2026-05-06 02:23 36.14609 -114.84730 9823 ft 308 kts 107°
2026-05-06 02:23 36.14009 -114.82184 10527 ft 309 kts 107°
2026-05-06 02:23 36.13419 -114.79656 11221 ft 311 kts 107°
2026-05-06 02:23 36.12583 -114.77200 11916 ft 311 kts 121°
2026-05-06 02:24 36.11271 -114.75060 12460 ft 319 kts 135°
2026-05-06 02:24 36.09475 -114.73322 12586 ft 338 kts 149°
2026-05-06 02:24 36.07426 -114.71729 12732 ft 357 kts 148°
2026-05-06 02:24 36.05302 -114.70061 13169 ft 365 kts 148°
2026-05-06 02:25 36.03151 -114.68359 13758 ft 369 kts 148°
2026-05-06 02:25 36.00983 -114.66634 14366 ft 372 kts 147°
2026-05-06 02:25 35.98806 -114.64899 14944 ft 374 kts 147°
2026-05-06 02:25 35.96613 -114.63151 15505 ft 376 kts 147°
2026-05-06 02:26 35.94407 -114.61397 16062 ft 378 kts 147°
2026-05-06 02:26 35.92218 -114.59658 16602 ft 380 kts 147°
2026-05-06 02:26 35.89988 -114.57891 17126 ft 383 kts 147°
2026-05-06 02:26 35.87740 -114.56112 17618 ft 385 kts 147°
2026-05-06 02:27 35.85477 -114.54321 18086 ft 388 kts 147°
2026-05-06 02:27 35.83198 -114.52518 18564 ft 390 kts 147°
2026-05-06 02:27 35.80910 -114.50708 19017 ft 392 kts 147°
2026-05-06 02:27 35.78610 -114.48892 19442 ft 394 kts 146°
2026-05-06 02:28 35.76298 -114.47066 19841 ft 396 kts 146°
2026-05-06 02:28 35.73972 -114.45230 20232 ft 398 kts 146°
2026-05-06 02:28 35.71632 -114.43382 20618 ft 401 kts 146°
2026-05-06 02:28 35.69329 -114.41442 20997 ft 402 kts 140°
2026-05-06 02:29 35.67219 -114.39238 21368 ft 404 kts 138°
2026-05-06 02:29 35.65085 -114.36974 21743 ft 406 kts 138°
2026-05-06 02:29 35.62942 -114.34700 22117 ft 408 kts 138°
2026-05-06 02:29 35.60785 -114.32413 22500 ft 411 kts 137°
2026-05-06 02:30 35.58615 -114.30119 22872 ft 413 kts 137°
2026-05-06 02:30 35.56429 -114.27811 23245 ft 415 kts 137°
2026-05-06 02:30 35.54233 -114.25496 23611 ft 417 kts 137°
2026-05-06 02:30 35.52024 -114.23175 23958 ft 419 kts 137°
2026-05-06 02:31 35.49797 -114.20837 24294 ft 422 kts 137°
2026-05-06 02:31 35.47564 -114.18490 24635 ft 424 kts 137°
2026-05-06 02:31 35.45318 -114.16131 24957 ft 427 kts 138°
2026-05-06 02:31 35.43057 -114.13761 25286 ft 429 kts 138°
2026-05-06 02:32 35.40782 -114.11373 25602 ft 431 kts 138°
2026-05-06 02:32 35.38528 -114.09007 25900 ft 434 kts 138°
2026-05-06 02:32 35.36231 -114.06597 26211 ft 436 kts 138°
2026-05-06 02:32 35.33951 -114.04133 26504 ft 438 kts 134°
2026-05-06 02:33 35.31970 -114.01305 26783 ft 439 kts 124°
2026-05-06 02:33 35.30882 -113.99214 26962 ft 440 kts 118°
2026-05-06 02:33 35.28548 -113.90922 27503 ft 446 kts 103°
2026-05-06 02:34 35.27787 -113.87222 27690 ft 451 kts 103°
2026-05-06 02:34 35.27008 -113.83483 27848 ft 456 kts 104°
2026-05-06 02:34 35.26217 -113.79706 28023 ft 460 kts 104°
2026-05-06 02:34 35.25426 -113.75948 28217 ft 464 kts 105°
2026-05-06 02:35 35.24618 -113.72117 28478 ft 466 kts 106°
2026-05-06 02:35 35.23812 -113.68279 28769 ft 466 kts 106°
2026-05-06 02:35 35.23004 -113.64429 28930 ft 468 kts 106°
2026-05-06 02:36 35.21519 -113.56837 28958 ft 455 kts 105°
2026-05-06 02:36 35.20137 -113.49284 28956 ft 456 kts 105°
2026-05-06 02:37 35.18730 -113.41721 28968 ft 457 kts 106°
2026-05-06 02:37 35.17207 -113.34220 28971 ft 456 kts 112°
2026-05-06 02:38 35.14341 -113.27416 28979 ft 448 kts 128°
2026-05-06 02:38 35.10866 -113.21090 28971 ft 449 kts 129°
2026-05-06 02:39 35.07410 -113.14774 28985 ft 447 kts 129°
2026-05-06 02:39 35.05681 -113.11621 28722 ft 446 kts 129°
2026-05-06 02:39 35.03954 -113.08486 28486 ft 444 kts 129°
2026-05-06 02:39 35.02253 -113.05406 28274 ft 443 kts 130°
2026-05-06 02:40 35.00533 -113.02302 28038 ft 441 kts 130°
2026-05-06 02:40 34.98816 -112.99211 27809 ft 439 kts 130°
2026-05-06 02:40 34.97103 -112.96131 27586 ft 438 kts 130°
2026-05-06 02:40 34.95401 -112.93064 27357 ft 436 kts 130°
2026-05-06 02:41 34.93703 -112.90004 27135 ft 435 kts 130°
2026-05-06 02:41 34.92011 -112.86952 26906 ft 434 kts 130°
2026-05-06 02:41 34.90324 -112.83910 26675 ft 432 kts 130°
2026-05-06 02:41 34.88641 -112.80883 26453 ft 431 kts 130°
2026-05-06 02:42 34.86960 -112.77870 26232 ft 429 kts 130°
2026-05-06 02:42 34.85284 -112.74870 26007 ft 428 kts 130°
2026-05-06 02:42 34.83617 -112.71884 25784 ft 426 kts 130°
2026-05-06 02:42 34.81950 -112.68906 25562 ft 425 kts 130°
2026-05-06 02:43 34.80310 -112.65978 25334 ft 424 kts 130°
2026-05-06 02:43 34.78653 -112.63017 25125 ft 422 kts 130°
2026-05-06 02:43 34.77002 -112.60069 24902 ft 421 kts 130°
2026-05-06 02:43 34.75357 -112.57129 24680 ft 420 kts 130°
2026-05-06 02:44 34.73716 -112.54198 24465 ft 419 kts 130°
2026-05-06 02:44 34.72080 -112.51278 24240 ft 418 kts 130°
2026-05-06 02:44 34.70345 -112.48480 24024 ft 410 kts 139°
2026-05-06 02:44 34.68335 -112.46139 23833 ft 389 kts 148°
2026-05-06 02:45 34.66268 -112.44118 23706 ft 374 kts 148°
2026-05-06 02:45 34.64248 -112.42143 23401 ft 374 kts 148°
2026-05-06 02:45 34.62213 -112.40172 22407 ft 386 kts 148°
2026-05-06 02:45 34.60106 -112.38127 21826 ft 385 kts 147°
2026-05-06 02:46 34.58009 -112.36080 21469 ft 387 kts 147°
2026-05-06 02:46 34.55923 -112.34033 21035 ft 385 kts 147°
2026-05-06 02:46 34.53849 -112.31998 20605 ft 382 kts 147°
2026-05-06 02:46 34.51788 -112.29983 20177 ft 380 kts 147°
2026-05-06 02:47 34.49735 -112.27985 19741 ft 377 kts 147°
2026-05-06 02:47 34.47699 -112.26005 19315 ft 374 kts 146°
2026-05-06 02:47 34.45650 -112.24181 18970 ft 363 kts 154°
2026-05-06 02:47 34.43438 -112.22880 18664 ft 345 kts 165°
2026-05-06 02:48 34.41139 -112.22114 18442 ft 341 kts 173°
2026-05-06 02:48 34.38823 -112.21516 18091 ft 340 kts 172°
2026-05-06 02:48 34.36511 -112.20919 17740 ft 339 kts 172°
2026-05-06 02:48 34.34210 -112.20322 17477 ft 338 kts 172°
2026-05-06 02:49 34.31915 -112.19726 17136 ft 336 kts 172°
2026-05-06 02:49 34.29635 -112.19135 16787 ft 334 kts 172°
2026-05-06 02:49 34.27368 -112.18548 16438 ft 332 kts 172°
2026-05-06 02:49 34.25116 -112.17965 16087 ft 331 kts 172°
2026-05-06 02:50 34.22901 -112.17393 15746 ft 329 kts 172°
2026-05-06 02:50 34.20667 -112.16817 15394 ft 327 kts 171°
2026-05-06 02:50 34.18443 -112.16246 15061 ft 326 kts 172°
2026-05-06 02:50 34.16231 -112.15679 14723 ft 324 kts 172°
2026-05-06 02:51 34.14030 -112.15117 14382 ft 322 kts 172°
2026-05-06 02:51 34.11869 -112.14560 14122 ft 309 kts 171°
2026-05-06 02:51 34.09812 -112.14025 13544 ft 297 kts 171°
2026-05-06 02:51 34.07823 -112.13400 13280 ft 296 kts 165°
2026-05-06 02:52 34.05876 -112.12600 13031 ft 295 kts 165°
2026-05-06 02:52 34.03959 -112.11817 12782 ft 294 kts 165°
2026-05-06 02:52 34.02021 -112.11025 12534 ft 294 kts 165°
2026-05-06 02:52 34.00088 -112.10240 12281 ft 293 kts 165°
2026-05-06 02:53 33.98163 -112.09460 12028 ft 291 kts 165°
2026-05-06 02:53 33.96247 -112.08679 11777 ft 290 kts 165°
2026-05-06 02:53 33.94334 -112.07898 11524 ft 290 kts 164°
2026-05-06 02:53 33.92419 -112.07119 11271 ft 290 kts 165°
2026-05-06 02:54 33.90508 -112.06349 11019 ft 290 kts 164°
2026-05-06 02:54 33.88601 -112.05575 10957 ft 288 kts 164°
2026-05-06 02:54 33.86685 -112.04797 10869 ft 293 kts 164°
2026-05-06 02:54 33.84767 -112.04016 10545 ft 290 kts 164°
2026-05-06 02:55 33.82885 -112.03251 10256 ft 289 kts 164°
2026-05-06 02:55 33.80992 -112.02481 10014 ft 280 kts 164°
2026-05-06 02:55 33.79194 -112.01750 9628 ft 268 kts 165°
2026-05-06 02:55 33.77471 -112.01051 9510 ft 253 kts 165°
2026-05-06 02:56 33.75851 -112.00391 9375 ft 240 kts 165°
2026-05-06 02:56 33.74300 -111.99761 9127 ft 232 kts 165°
2026-05-06 02:56 33.72785 -111.99152 9039 ft 231 kts 165°
2026-05-06 02:56 33.71262 -111.98540 8981 ft 227 kts 165°
2026-05-06 02:57 33.69833 -111.97962 8870 ft 218 kts 166°
2026-05-06 02:57 33.68386 -111.97380 8751 ft 220 kts 166°
2026-05-06 02:57 33.66938 -111.96797 8616 ft 220 kts 165°
2026-05-06 02:57 33.65487 -111.96212 8488 ft 219 kts 165°
2026-05-06 02:58 33.64043 -111.95629 8363 ft 219 kts 165°
2026-05-06 02:58 33.62598 -111.95047 8238 ft 219 kts 165°
2026-05-06 02:58 33.61158 -111.94466 8100 ft 219 kts 165°
2026-05-06 02:58 33.59721 -111.93885 7863 ft 217 kts 165°
2026-05-06 02:59 33.58292 -111.93309 7590 ft 216 kts 165°
2026-05-06 02:59 33.56868 -111.92736 7310 ft 215 kts 165°
2026-05-06 02:59 33.55471 -111.92172 7176 ft 214 kts 165°
2026-05-06 02:59 33.54132 -111.91357 7098 ft 220 kts 145°
2026-05-06 03:00 33.53155 -111.89939 6976 ft 225 kts 121°
2026-05-06 03:00 33.52741 -111.88142 6572 ft 225 kts 94°
2026-05-06 03:00 33.52728 -111.86272 6202 ft 224 kts 91°
2026-05-06 03:00 33.52713 -111.84416 5829 ft 222 kts 91°
2026-05-06 03:01 33.52502 -111.82594 5222 ft 220 kts 112°
2026-05-06 03:01 33.51653 -111.81117 4670 ft 213 kts 139°
2026-05-06 03:01 33.50577 -111.79918 4168 ft 212 kts 140°
2026-05-06 03:01 33.49512 -111.78712 3609 ft 210 kts 140°
2026-05-06 03:02 33.48479 -111.77539 3420 ft 207 kts 139°
2026-05-06 03:02 33.47407 -111.76371 3408 ft 208 kts 147°
2026-05-06 03:02 33.46119 -111.75899 3397 ft 180 kts 185°
2026-05-06 03:02 33.45025 -111.76304 3393 ft 158 kts 216°
2026-05-06 03:03 33.44304 -111.77223 3393 ft 150 kts 242°
2026-05-06 03:03 33.44031 -111.78378 3222 ft 143 kts 267°
2026-05-06 03:03 33.44035 -111.79568 3033 ft 143 kts 269°
2026-05-06 03:03 33.44039 -111.80758 3038 ft 146 kts 269°
2026-05-06 03:04 33.44043 -111.81977 3035 ft 146 kts 269°
2026-05-06 03:04 33.44047 -111.83194 3034 ft 146 kts 269°
2026-05-06 03:04 33.44050 -111.84412 3028 ft 146 kts 269°
2026-05-06 03:04 33.44053 -111.85651 3040 ft 151 kts 268°
2026-05-06 03:05 33.44057 -111.86911 3029 ft 151 kts 269°
2026-05-06 03:05 33.44060 -111.88168 2910 ft 151 kts 269°
2026-05-06 03:05 33.44062 -111.89413 2744 ft 149 kts 269°
2026-05-06 03:05 33.44065 -111.90649 2559 ft 147 kts 269°
2026-05-06 03:06 33.44068 -111.91846 2372 ft 145 kts 270°
2026-05-06 03:06 33.44071 -111.93046 2180 ft 144 kts 270°
2026-05-06 03:06 33.44073 -111.94246 1991 ft 144 kts 270°
2026-05-06 03:06 33.44075 -111.95444 1800 ft 144 kts 270°
2026-05-06 03:07 33.44077 -111.96640 1616 ft 144 kts 270°
2026-05-06 03:07 33.44079 -111.97840 1419 ft 144 kts 270°
2026-05-06 03:07 33.44081 -111.99042 1227 ft 145 kts 270°
2026-05-06 03:07 33.44083 -112.00207 1133 ft 130 kts 270°
2026-05-06 03:08 33.44084 -112.00959 1132 ft 61 kts 270°
2026-05-06 03:08 33.44081 -112.01294 1138 ft 11 kts 252°
2026-05-06 03:08 33.44038 -112.01345 1136 ft 3 kts 208°
2026-05-06 03:08 33.44007 -112.01354 1136 ft 6 kts 179°
2026-05-06 03:09 33.43979 -112.01384 1135 ft 7 kts 251°
2026-05-06 03:09 33.43944 -112.01431 1137 ft 8 kts 197°
2026-05-06 03:09 33.43906 -112.01401 1134 ft 6 kts 111°
2026-05-06 03:09 33.43901 -112.01353 1131 ft 6 kts 92°
2026-05-06 03:10 33.43900 -112.01299 1131 ft 6 kts 89°
2026-05-06 03:10 33.43901 -112.01241 1135 ft 7 kts 89°
2026-05-06 03:10 33.43902 -112.01171 1133 ft 8 kts 89°
2026-05-06 03:10 33.43903 -112.01107 1131 ft 7 kts 89°
2026-05-06 03:11 33.43904 -112.01046 1131 ft 8 kts 89°
2026-05-06 03:11 33.43903 -112.00962 1131 ft 12 kts 91°
2026-05-06 03:11 33.43902 -112.00870 1133 ft 11 kts 91°
2026-05-06 03:11 33.43901 -112.00770 1131 ft 12 kts 90°
2026-05-06 03:12 33.43901 -112.00671 1131 ft 11 kts 90°
2026-05-06 03:12 33.43900 -112.00565 1131 ft 17 kts 90°
2026-05-06 03:12 33.43904 -112.00430 1131 ft 16 kts 87°
2026-05-06 03:12 33.43905 -112.00303 1133 ft 15 kts 90°
2026-05-06 03:13 33.43905 -112.00186 1133 ft 14 kts 90°
2026-05-06 03:13 33.43905 -112.00068 1131 ft 16 kts 90°
2026-05-06 03:13 33.43904 -111.99950 1131 ft 11 kts 90°
2026-05-06 03:13 33.43900 -111.99862 1136 ft 10 kts 108°
2026-05-06 03:14 33.43843 -111.99830 1134 ft 10 kts 177°
2026-05-06 03:14 33.43773 -111.99829 1139 ft 9 kts 179°
2026-05-06 03:14 33.43730 -111.99838 1134 ft 4 kts 222°
2026-05-06 03:14 33.43725 -111.99861 1135 ft 2 kts 262°
2026-05-06 03:15 33.43724 -111.99869 1131 ft 0 kts 266°
2026-05-06 03:15 33.43724 -111.99873 1131 ft 0 kts 266°
2026-05-06 03:15 33.43724 -111.99876 1131 ft 0 kts 268°
2026-05-06 03:16 33.43724 -111.99881 1131 ft 1 kts 268°
2026-05-06 03:16 33.43723 -111.99881 1131 ft 0 kts 270°